Terminal Aerodrome Forecast
Issued by NWS Billings, MT

Home | Current Version | Previous Version | Text Only | Print | Product List | Glossary On
Versions: 1 2 3 4 5 6 7 8 9 10 11 12 13 14 15 16 17 18 19 20 21 22 23 24 25 26 27 28 29 30 31 32 33 34 35 36
000
FTUS45 KBYZ 301740
TAFBIL
TAF
KBIL 301740Z 3018/3118 VRB05KT P6SM VCSH FEW060 BKN120 BKN200
     FM302200 VRB05KT P6SM VCTS SCT060CB BKN090 OVC150
     FM310400 30010KT P6SM VCSH BKN060 OVC120
     FM310900 30010KT 3SM SHRA BKN040 OVC080=

USA.gov is the U.S. government's official web portal to all federal, state and local government web resources and services.